Project,Study,Ord_Occ,Event_Num,Cast_ID,Date_Time_UTC,Date_Time_PST,Lat_Dec,Lon_Dec,Sta_ID,Line,Sta,Depth,Pressure,PrQ,Temp1,Temp1Q,Temp2,Temp2Q,TempAve,Salt1,Salt1Q,Salt1_Corr,Salt2,Salt2Q,Salt2_Corr,SaltAve_Corr,Ox1,Ox1Q,Ox1_CruiseCorr,Ox1_StaCorr,Ox2,Ox2Q,Ox2_CruiseCorr,Ox2_StaCorr,OxAve_StaCorr,Ox1uM,Ox1uM_CruiseCorr,Ox1uM_StaCorr,Ox2uM,Ox2uM_CruiseCorr,Ox2uM_StaCorr,OxAveuM_StaCorr,FluorV,FluorQ,EstChl_CruiseCorr,EstChl_StaCorr,ISUSV,ISUSQ,EstNO3_CruiseCorr,EstNO3_StaCorr,SigThetaTS1,SigThetaTS1Q,SigThetaTS2,SigThetaTS2Q,BAT,XMiss,TransQ,pH,pHQ,SPAR,SPARQ,PAR,PARQ,PoT1,PoT2,DynHt,SVA,OxSat1,OxSat2,BTL_Depth,BTL_Temp,SaltB,OxB,OxBuM,Chl-a,Phaeo,NO3,NO2,NH4,PO4,SIL
CalCOFI,2105SH,020,,2105_020d,08-May-2021 15:53:15,08-May-2021 07:53:15,32.91580,-118.93555,090.0 045.0,090.0,045.0,2.000,2.014,,16.7320,,16.7416,,16.7368,33.6483,,33.6495,33.6506,,33.6525,33.6510,5.5994,,5.9220,5.9101,5.6595,,5.9215,5.9089,5.9095,244.081,257.6611,195.7294,246.700,268.7367,196.7200,196.2247,0.0540,,0.1801,0.2144,2.6747,,0.0000,,24.5398,,24.5394,,,,,,,,,,,16.7317,16.7412,-0.0093,338.658,100.927,102.031,2,16.761,33.6452,5.920,258.06,0.424,0.100,0.18,0.00,0.00,0.24,2.63
CalCOFI,2105SH,020,,2105_020d,08-May-2021 15:54:24,08-May-2021 07:54:24,32.91600,-118.93558,090.0 045.0,090.0,045.0,3.000,3.021,,16.7605,,16.7575,,16.7590,33.6524,,33.6536,33.6513,,33.6532,33.6534,5.5897,,5.9118,5.8999,5.6714,,5.9338,5.9213,5.9106,243.656,257.2168,195.4219,247.220,268.2777,197.0959,196.2589,0.0511,,0.1586,0.1977,2.6700,,0.0000,,24.5364,,24.5363,,,,,,,,,,,16.7600,16.7570,0.0144,339.017,100.809,102.277,,,,,,,,,,,,
CalCOFI,2105SH,020,,2105_020d,08-May-2021 15:54:27,08-May-2021 07:54:27,32.91600,-118.93558,090.0 045.0,090.0,045.0,4.000,4.028,,16.7345,,16.7324,,16.7335,33.6509,,33.6521,33.6498,,33.6517,33.6519,5.5893,,5.9114,5.8995,5.6717,,5.9341,5.9216,5.9106,243.640,257.2001,195.4104,247.229,268.2604,197.1024,196.2564,0.0533,,0.1749,0.2103,2.6713,,0.0000,,24.5414,,24.5410,,,,,,,,,,,16.7338,16.7318,0.0200,338.578,100.751,102.231,,,,,,,,,,,,
CalCOFI,2105SH,020,,2105_020d,08-May-2021 15:54:28,08-May-2021 07:54:28,32.91600,-118.93558,090.0 045.0,090.0,045.0,5.000,5.036,,16.7297,,16.7299,,16.7298,33.6501,,33.6513,33.6496,,33.6515,33.6514,5.5836,,5.9054,5.8934,5.6742,,5.9367,5.9243,5.9089,243.389,256.9377,195.2288,247.339,267.9893,197.1819,196.2054,0.0569,,0.2015,0.2311,2.6716,,0.0000,,24.5419,,24.5415,,,,,,,,,,,16.7289,16.7291,0.0231,338.564,100.638,102.271,,,,,,,,,,,,
CalCOFI,2105SH,020,,2105_020d,08-May-2021 15:54:30,08-May-2021 07:54:30,32.91600,-118.93558,090.0 045.0,090.0,045.0,6.000,6.043,,16.7253,,16.7257,,16.7255,33.6497,,33.6509,33.6494,,33.6513,33.6511,5.6295,,5.9534,5.9419,5.6748,,5.9374,5.9249,5.9334,245.389,259.0285,196.6755,247.366,270.1493,197.2014,196.9385,0.0608,,0.2303,0.2535,2.6718,,0.0000,,24.5427,,24.5423,,,,,,,,,,,16.7243,16.7248,0.0265,338.520,101.456,102.274,,,,,,,,,,,,
CalCOFI,2105SH,020,,2105_020d,08-May-2021 15:54:32,08-May-2021 07:54:32,32.91601,-118.93558,090.0 045.0,090.0,045.0,7.000,7.050,,16.7238,,16.7239,,16.7239,33.6498,,33.6510,33.6494,,33.6513,33.6512,5.5812,,5.9029,5.8909,5.6764,,5.9390,5.9266,5.9088,243.285,256.8289,195.1536,247.435,267.8770,197.2513,196.2025,0.0649,,0.2604,0.2771,2.6720,,0.0000,,24.5431,,24.5428,,,,,,,,,,,16.7227,16.7227,0.0299,338.515,100.583,102.299,,,,,,,,,,,,
CalCOFI,2105SH,020,,2105_020d,08-May-2021 15:54:34,08-May-2021 07:54:34,32.91602,-118.93558,090.0 045.0,090.0,045.0,8.000,8.057,,16.7228,,16.7233,,16.7231,33.6497,,33.6509,33.6495,,33.6514,33.6512,5.5798,,5.9015,5.8894,5.6743,,5.9368,5.9244,5.9069,243.226,256.7673,195.1109,247.344,267.8133,197.1855,196.1482,0.0673,,0.2780,0.2909,2.6720,,0.0000,,24.5433,,24.5431,,,,,,,,,,,16.7215,16.7220,0.0333,338.525,100.557,102.260,,,,,,,,,,,,
CalCOFI,2105SH,020,,2105_020d,08-May-2021 15:54:35,08-May-2021 07:54:35,32.91602,-118.93558,090.0 045.0,090.0,045.0,9.000,9.064,,16.7224,,16.7228,,16.7226,33.6498,,33.6510,33.6496,,33.6515,33.6513,5.6106,,5.9337,5.9220,5.6804,,5.9432,5.9308,5.9264,244.567,258.1691,196.0809,247.610,269.2615,197.3778,196.7294,0.0685,,0.2868,0.2978,2.6721,,0.0000,,24.5435,,24.5432,,,,,,,,,,,16.7210,16.7213,0.0367,338.540,101.110,102.369,,,,,,,,,,,,
CalCOFI,2105SH,020,,2105_020d,08-May-2021 15:54:37,08-May-2021 07:54:37,32.91602,-118.93558,090.0 045.0,090.0,045.0,10.000,10.071,,16.7214,,16.7218,,16.7216,33.6497,,33.6509,33.6495,,33.6514,33.6512,5.6210,,5.9445,5.9330,5.6776,,5.9403,5.9278,5.9304,245.020,258.6427,196.4086,247.487,269.7508,197.2889,196.8488,0.0703,,0.3000,0.3082,2.6719,,0.0000,,24.5437,,24.5435,,,,,,,,,,,16.7197,16.7202,0.0401,338.554,101.296,102.316,10,15.141,,,258.48,0.663,0.177,0.48,0.00,0.00,0.27,2.81
CalCOFI,2105SH,020,,2105_020d,08-May-2021 15:54:41,08-May-2021 07:54:41,32.91602,-118.93558,090.0 045.0,090.0,045.0,11.000,11.078,,16.7202,,16.7204,,16.7203,33.6497,,33.6509,33.6495,,33.6514,33.6512,5.5839,,5.9057,5.8937,5.6726,,5.9351,5.9226,5.9082,243.403,256.9523,195.2389,247.271,268.0044,197.1327,196.1858,0.0719,,0.3117,0.3174,2.6715,,0.0000,,24.5440,,24.5439,,,,,,,,,,,16.7184,16.7186,0.0435,338.559,100.625,102.224,,,,,,,,,,,,
CalCOFI,2105SH,020,,2105_020d,08-May-2021 15:54:42,08-May-2021 07:54:42,32.91602,-118.93556,090.0 045.0,090.0,045.0,12.000,12.085,,16.7170,,16.7161,,16.7166,33.6498,,33.6510,33.6493,,33.6512,33.6511,5.6032,,5.9259,5.9141,5.6442,,5.9057,5.8928,5.9035,244.244,257.8315,195.8473,246.033,268.9127,196.2378,196.0426,0.0730,,0.3197,0.3237,2.6716,,0.0000,,24.5449,,24.5447,,,,,,,,,,,16.7151,16.7142,0.0469,338.511,100.966,101.704,,,,,,,,,,,,
CalCOFI,2105SH,020,,2105_020d,08-May-2021 15:54:43,08-May-2021 07:54:43,32.91603,-118.93556,090.0 045.0,090.0,045.0,13.000,13.093,,16.7079,,16.7070,,16.7075,33.6499,,33.6511,33.6488,,33.6507,33.6509,5.5648,,5.8858,5.8736,5.6690,,5.9314,5.9188,5.8962,242.569,256.0804,194.6356,247.112,267.1037,197.0178,195.8267,0.0735,,0.3234,0.3266,2.6719,,0.0000,,24.5471,,24.5465,,,,,,,,,,,16.7058,16.7049,0.0503,338.329,100.257,102.132,,,,,,,,,,,,
CalCOFI,2105SH,020,,2105_020d,08-May-2021 15:54:45,08-May-2021 07:54:45,32.91604,-118.93556,090.0 045.0,090.0,045.0,14.000,14.100,,16.6315,,16.6319,,16.6317,33.6519,,33.6531,33.6427,,33.6446,33.6489,5.5932,,5.9155,5.9036,5.7216,,5.9858,5.9739,5.9388,243.805,257.3725,195.5297,249.401,268.4386,198.6724,197.1011,0.0772,,0.3504,0.3479,2.6723,,0.0000,,24.5664,,24.5593,,,,,,,,,,,16.6293,16.6297,0.0537,336.523,100.621,102.926,,,,,,,,,,,,
CalCOFI,2105SH,020,,2105_020d,08-May-2021 15:54:46,08-May-2021 07:54:46,32.91604,-118.93557,090.0 045.0,090.0,045.0,15.000,15.107,,16.2718,,16.2709,,16.2714,33.6491,,33.6503,33.6335,,33.6354,33.6429,5.6929,,6.0197,6.0090,5.7697,,6.0357,6.0243,6.0167,248.131,261.8949,198.6590,251.479,273.1107,200.1745,199.4168,0.0996,,0.5123,0.4767,2.6727,,0.0000,,24.6472,,24.6355,,,,,,,,,,,16.2694,16.2685,0.0571,328.848,101.699,103.058,,,,,,,,,,,,
CalCOFI,2105SH,020,,2105_020d,08-May-2021 15:54:48,08-May-2021 07:54:48,32.91605,-118.93556,090.0 045.0,090.0,045.0,16.000,16.114,,16.0803,,16.0882,,16.0843,33.6408,,33.6420,33.6343,,33.6362,33.6391,5.7046,,6.0320,6.0213,5.7703,,6.0363,6.0250,6.0232,248.631,262.4176,199.0207,251.494,273.6507,200.1854,199.6031,0.1152,,0.6237,0.5665,2.6705,,0.0000,,24.6846,,24.6778,,,,,,,,,,,16.0778,16.0857,0.0604,325.317,101.522,102.702,,,,,,,,,,,,
CalCOFI,2105SH,020,,2105_020d,08-May-2021 15:54:51,08-May-2021 07:54:51,32.91606,-118.93556,090.0 045.0,090.0,045.0,17.000,17.121,,15.8901,,15.8786,,15.8844,33.6418,,33.6430,33.6266,,33.6285,33.6358,5.6795,,6.0057,5.9948,5.7243,,5.9886,5.9768,5.9858,247.526,261.2625,198.2214,249.479,272.4573,198.7288,198.4751,0.1190,,0.6506,0.5884,2.6573,,0.0000,,24.7284,,24.7193,,,,,,,,,,,15.8875,15.8760,0.0636,321.172,100.700,101.462,,,,,,,,,,,,
CalCOFI,2105SH,020,,2105_020d,08-May-2021 15:54:53,08-May-2021 07:54:53,32.91606,-118.93556,090.0 045.0,090.0,045.0,18.000,18.128,,15.3582,,15.3725,,15.3654,33.6428,,33.6440,33.6095,,33.6114,33.6277,5.5940,,5.9163,5.9044,5.5311,,5.7885,5.7743,5.8394,243.771,257.3370,195.5051,241.038,268.4019,192.6271,194.0661,0.1433,,0.8213,0.7282,2.6427,,0.0000,,24.8477,,24.8188,,,,,,,,,,,15.3555,15.3697,0.0668,309.835,98.153,97.059,,,,,,,,,,,,
CalCOFI,2105SH,020,,2105_020d,08-May-2021 15:54:54,08-May-2021 07:54:54,32.91606,-118.93556,090.0 045.0,090.0,045.0,19.000,19.136,,14.8069,,14.7842,,14.7956,33.6403,,33.6415,33.5993,,33.6012,33.6214,5.3983,,5.7116,5.6975,5.3412,,5.5918,5.5753,5.6364,235.215,248.3926,189.3160,232.732,259.1614,186.6230,187.9695,0.2116,,1.2860,1.1212,2.6275,,0.0000,,24.9660,,24.9393,,,,,,,,,,,14.8041,14.7814,0.0699,298.581,93.682,92.624,,,,,,,,,,,,
CalCOFI,2105SH,020,,2105_020d,08-May-2021 15:54:55,08-May-2021 07:54:55,32.91606,-118.93556,090.0 045.0,090.0,045.0,20.000,20.143,,14.1224,,14.0981,,14.1103,33.6475,,33.6487,33.6053,,33.6072,33.6280,5.3157,,5.6253,5.6102,5.3271,,5.5772,5.5605,5.5854,231.581,244.5936,186.6873,232.084,255.2366,186.1546,186.4210,0.4084,,2.4997,2.2536,2.6127,,0.0000,,25.1170,,25.0896,,,,,,,,,,,14.1196,14.0952,0.0728,284.221,90.989,91.115,20,12.961,,, ,,,,,,,
CalCOFI,2105SH,020,,2105_020d,08-May-2021 15:54:56,08-May-2021 07:54:56,32.91606,-118.93556,090.0 045.0,090.0,045.0,21.000,21.150,,13.7972,,13.7904,,13.7938,33.6455,,33.6467,33.6164,,33.6183,33.6325,5.3026,,5.6116,5.5964,5.3461,,5.5969,5.5805,5.5885,230.998,243.9841,186.2655,232.896,254.6070,186.7416,186.5036,0.4921,,2.9597,2.7352,2.5932,,0.0000,,25.1829,,25.1619,,,,,,,,,,,13.7942,13.7874,0.0757,277.965,90.168,90.878,,,,,,,,,,,,
CalCOFI,2105SH,020,,2105_020d,08-May-2021 15:55:00,08-May-2021 07:55:00,32.91608,-118.93556,090.0 045.0,090.0,045.0,22.000,22.157,,13.6981,,13.6779,,13.6880,33.6362,,33.6374,33.6263,,33.6282,33.6328,5.2037,,5.5081,5.4918,5.2410,,5.4880,5.4703,5.4811,226.686,239.4763,183.1464,228.310,249.9500,183.4265,183.2865,0.4585,,2.7791,2.5419,2.5103,,0.0000,,25.1962,,25.1927,,,,,,,,,,,13.6950,13.6748,0.0784,276.728,88.302,88.892,,,,,,,,,,,,
CalCOFI,2105SH,020,,2105_020d,08-May-2021 15:55:03,08-May-2021 07:55:03,32.91608,-118.93556,090.0 045.0,090.0,045.0,23.000,23.164,,13.6059,,13.6046,,13.6053,33.6426,,33.6438,33.6309,,33.6328,33.6383,5.0464,,5.3436,5.3255,5.0866,,5.3281,5.3085,5.3170,219.828,232.3070,178.1855,221.579,242.5434,178.5609,178.3732,0.4453,,2.7066,2.4659,2.4576,,0.0000,,25.2201,,25.2113,,,,,,,,,,,13.6027,13.6014,0.0812,274.480,85.475,86.147,,,,,,,,,,,,
CalCOFI,2105SH,020,,2105_020d,08-May-2021 15:55:04,08-May-2021 07:55:04,32.91608,-118.93556,090.0 045.0,090.0,045.0,24.000,24.172,,13.5310,,13.5218,,13.5264,33.6456,,33.6468,33.6305,,33.6324,33.6396,4.9875,,5.2820,5.2633,5.0427,,5.2826,5.2625,5.2629,217.259,229.6214,176.3272,219.666,239.7688,177.1781,176.7527,0.4365,,2.6579,2.4153,2.4353,,0.0000,,25.2377,,25.2278,,,,,,,,,,,13.5277,13.5184,0.0840,272.833,84.350,85.260,,,,,,,,,,,,
CalCOFI,2105SH,020,,2105_020d,08-May-2021 15:55:05,08-May-2021 07:55:05,32.91608,-118.93556,090.0 045.0,090.0,045.0,25.000,25.179,,13.4362,,13.4340,,13.4351,33.6478,,33.6490,33.6358,,33.6377,33.6434,4.9450,,5.2376,5.2183,4.9983,,5.2366,5.2160,5.2172,215.402,227.6801,174.9839,217.725,237.7633,175.7750,175.3795,0.4084,,2.4997,2.2536,2.4139,,0.0000,,25.2587,,25.2498,,,,,,,,,,,13.4328,13.4305,0.0867,270.860,83.470,84.360,,,,,,,,,,,,
CalCOFI,2105SH,020,,2105_020d,08-May-2021 15:55:06,08-May-2021 07:55:06,32.91610,-118.93556,090.0 045.0,090.0,045.0,26.000,26.186,,13.3565,,13.3535,,13.3550,33.6529,,33.6541,33.6381,,33.6400,33.6471,4.9304,,5.2223,5.2029,4.9697,,5.2070,5.1860,5.1945,214.762,227.0110,174.5209,216.476,237.0721,174.8721,174.6965,0.4077,,2.4957,2.2496,2.3878,,0.0000,,25.2788,,25.2678,,,,,,,,,,,13.3529,13.3499,0.0894,268.974,83.091,83.740,,,,,,,,,,,,
CalCOFI,2105SH,020,,2105_020d,08-May-2021 15:55:09,08-May-2021 07:55:09,32.91611,-118.93556,090.0 045.0,090.0,045.0,27.000,27.193,,13.1817,,13.1667,,13.1742,33.6555,,33.6567,33.6438,,33.6457,33.6512,4.7509,,5.0346,5.0131,4.7693,,4.9994,4.9760,4.9946,206.935,218.8286,168.8591,207.740,228.6189,168.5572,168.7082,0.3315,,2.0476,1.8111,2.3234,,0.0000,,25.3159,,25.3099,,,,,,,,,,,13.1780,13.1629,0.0921,265.462,79.780,80.058,,,,,,,,,,,,
CalCOFI,2105SH,020,,2105_020d,08-May-2021 15:55:11,08-May-2021 07:55:11,32.91611,-118.93556,090.0 045.0,090.0,045.0,28.000,28.201,,12.8774,,12.8678,,12.8726,33.6717,,33.6729,33.6498,,33.6517,33.6623,4.6538,,4.9330,4.9105,4.7114,,4.9395,4.9154,4.9130,202.694,214.3951,165.7913,205.204,224.0386,166.7240,166.2577,0.3121,,1.9290,1.6995,2.2850,,0.0000,,25.3889,,25.3738,,,,,,,,,,,12.8736,12.8640,0.0947,258.528,77.669,78.604,,,,,,,,,,,,
CalCOFI,2105SH,020,,2105_020d,08-May-2021 15:55:12,08-May-2021 07:55:12,32.91610,-118.93555,090.0 045.0,090.0,045.0,29.000,29.208,,12.7041,,12.6993,,12.7017,33.6726,,33.6738,33.6568,,33.6587,33.6663,4.6263,,4.9043,4.8814,4.6811,,4.9081,4.8836,4.8825,201.488,213.1344,164.9189,203.879,222.7361,165.7662,165.3426,0.2990,,1.8479,1.6241,2.2612,,0.0000,,25.4237,,25.4123,,,,,,,,,,,12.7002,12.6955,0.0973,255.238,76.934,77.830,,,,,,,,,,,,
CalCOFI,2105SH,020,,2105_020d,08-May-2021 15:55:14,08-May-2021 07:55:14,32.91611,-118.93555,090.0 045.0,090.0,045.0,30.000,30.215,,12.5688,,12.5696,,12.5692,33.6697,,33.6709,33.6583,,33.6602,33.6656,4.5647,,4.8399,4.8163,4.5872,,4.8108,4.7852,4.8008,198.800,210.3243,162.9745,199.780,219.8331,162.8032,162.8889,0.2624,,1.6171,1.4135,2.2146,,0.0000,,25.4478,,25.4388,,,,,,,,,,,12.5648,12.5656,0.0999,252.963,75.696,76.064,30,11.909,,,186.47,1.351,0.573,10.24,0.391,0.00,0.98,8.88
CalCOFI,2105SH,020,,2105_020d,08-May-2021 15:55:17,08-May-2021 07:55:17,32.91612,-118.93554,090.0 045.0,090.0,045.0,31.000,31.222,,12.4927,,12.4907,,12.4917,33.6686,,33.6698,33.6590,,33.6609,33.6654,4.3087,,4.5721,4.5457,4.3004,,4.5138,4.4847,4.5152,187.648,198.6660,154.9075,187.287,207.7889,153.7724,154.3400,0.2257,,1.3791,1.2023,2.1528,,0.0000,,25.4617,,25.4547,,,,,,,,,,,12.4886,12.4866,0.1024,251.663,71.336,71.191,,,,,,,,,,,,
CalCOFI,2105SH,020,,2105_020d,08-May-2021 15:55:18,08-May-2021 07:55:18,32.91612,-118.93554,090.0 045.0,090.0,045.0,32.000,32.229,,12.3769,,12.3725,,12.3747,33.6712,,33.6724,33.6567,,33.6586,33.6655,4.1844,,4.4421,4.4143,4.1498,,4.3578,4.3269,4.3706,182.230,193.0020,150.9883,180.727,201.9374,149.0305,150.0094,0.2336,,1.4309,1.2478,2.1291,,0.0000,,25.4861,,25.4757,,,,,,,,,,,12.3727,12.3683,0.1050,249.366,69.112,68.529,,,,,,,,,,,,
CalCOFI,2105SH,020,,2105_020d,08-May-2021 15:55:19,08-May-2021 07:55:19,32.91612,-118.93554,090.0 045.0,090.0,045.0,33.000,33.237,,12.3037,,12.3019,,12.3028,33.6702,,33.6714,33.6600,,33.6619,33.6667,4.0683,,4.3207,4.2915,4.0445,,4.2487,4.2165,4.2540,177.173,187.7155,147.3302,176.136,196.4758,145.7118,146.5210,0.2090,,1.2687,1.1062,2.1112,,0.0000,,25.4994,,25.4918,,,,,,,,,,,12.2993,12.2975,0.1075,248.121,67.092,66.692,,,,,,,,,,,,
CalCOFI,2105SH,020,,2105_020d,08-May-2021 15:55:20,08-May-2021 07:55:20,32.91612,-118.93554,090.0 045.0,090.0,045.0,34.000,34.244,,12.2395,,12.2355,,12.2375,33.6700,,33.6712,33.6565,,33.6584,33.6648,3.9820,,4.2305,4.2003,4.0266,,4.2302,4.1978,4.1991,173.414,183.7858,144.6111,175.355,192.4161,145.1472,144.8792,0.2056,,1.2461,1.0867,2.0938,,0.0000,,25.5115,,25.5018,,,,,,,,,,,12.2350,12.2310,0.1100,246.991,65.582,66.304,,,,,,,,,,,,
CalCOFI,2105SH,020,,2105_020d,08-May-2021 15:55:21,08-May-2021 07:55:21,32.91612,-118.93554,090.0 045.0,090.0,045.0,35.000,35.251,,12.0074,,12.0003,,12.0039,33.6666,,33.6678,33.6462,,33.6481,33.6580,4.0680,,4.3204,4.2912,4.1458,,4.3536,4.3227,4.3070,177.151,187.6925,147.3143,180.541,196.4521,148.8960,148.1052,0.1902,,1.1428,0.9981,2.0696,,0.0000,,25.5529,,25.5384,,,,,,,,,,,12.0029,11.9958,0.1124,243.073,66.667,67.924,,,,,,,,,,,,
CalCOFI,2105SH,020,,2105_020d,08-May-2021 15:55:27,08-May-2021 07:55:27,32.91614,-118.93554,090.0 045.0,090.0,045.0,36.000,36.259,,11.8755,,11.8012,,11.8384,33.6630,,33.6642,33.6391,,33.6410,33.6526,3.8415,,4.0835,4.0518,3.8353,,4.0320,3.9973,4.0246,167.282,177.3754,140.1754,167.015,185.7935,139.1185,139.6470,0.1393,,0.7934,0.7052,1.9513,,0.0000,,25.5750,,25.5703,,,,,,,,,,,11.8709,11.7966,0.1164,240.988,62.780,62.574,,,,,,,,,,,,
CalCOFI,2105SH,020,,2105_020d,08-May-2021 15:55:28,08-May-2021 07:55:28,32.91614,-118.93554,090.0 045.0,090.0,045.0,37.000,37.266,,11.6343,,11.6210,,11.6277,33.6619,,33.6631,33.6392,,33.6411,33.6521,3.6873,,3.9223,3.8887,3.7024,,3.8943,3.8581,3.8734,160.563,170.3514,135.3151,161.220,178.5370,134.9296,135.1224,0.1229,,0.6782,0.6108,1.9268,,0.0000,,25.6191,,25.6039,,,,,,,,,,,11.6296,11.6163,0.1190,236.805,59.958,60.176,,,,,,,,,,,,
CalCOFI,2105SH,020,,2105_020d,08-May-2021 15:55:29,08-May-2021 07:55:29,32.91614,-118.93555,090.0 045.0,090.0,045.0,38.000,38.273,,11.4704,,11.4644,,11.4674,33.6619,,33.6631,33.6460,,33.6479,33.6555,3.6471,,3.8802,3.8462,3.6869,,3.8783,3.8418,3.8440,158.808,168.5167,134.0456,160.543,176.6416,134.4402,134.2429,0.1013,,0.5245,0.4865,1.9119,,0.0000,,25.6493,,25.6380,,,,,,,,,,,11.4656,11.4596,0.1214,233.949,59.099,59.730,,,,,,,,,,,,
CalCOFI,2105SH,020,,2105_020d,08-May-2021 15:55:30,08-May-2021 07:55:30,32.91614,-118.93556,090.0 045.0,090.0,045.0,39.000,39.280,,11.3783,,11.3726,,11.3755,33.6650,,33.6662,33.6477,,33.6496,33.6579,3.6294,,3.8617,3.8275,3.6958,,3.8875,3.8512,3.8394,158.035,167.7086,133.4864,160.924,175.8067,134.7156,134.1010,0.0970,,0.4937,0.4618,1.8975,,0.0000,,25.6685,,25.6561,,,,,,,,,,,11.3735,11.3678,0.1237,232.137,58.698,59.757,,,,,,,,,,,,
CalCOFI,2105SH,020,,2105_020d,08-May-2021 15:55:31,08-May-2021 07:55:31,32.91614,-118.93556,090.0 045.0,090.0,045.0,40.000,40.288,,11.2978,,11.2953,,11.2966,33.6707,,33.6719,33.6582,,33.6601,33.6660,3.6329,,3.8654,3.8312,3.7034,,3.8954,3.8591,3.8452,158.183,167.8633,133.5935,161.254,175.9666,134.9541,134.2738,0.0864,,0.4172,0.4008,1.8814,,0.0000,,25.6876,,25.6784,,,,,,,,,,,11.2929,11.2904,0.1260,230.337,58.656,59.787,,,,,,,,,,,,
CalCOFI,2105SH,020,,2105_020d,08-May-2021 15:55:35,08-May-2021 07:55:35,32.91615,-118.93557,090.0 045.0,090.0,045.0,41.000,41.295,,11.2865,,11.2358,,11.2612,33.6629,,33.6641,33.6573,,33.6592,33.6617,3.6349,,3.8675,3.8333,3.6442,,3.8341,3.7971,3.8152,158.270,167.9543,133.6564,158.674,176.0605,133.0891,133.3728,0.0793,,0.3657,0.3599,1.8079,,0.0000,,25.6835,,25.6885,,,,,,,,,,,11.2814,11.2308,0.1291,230.749,58.671,58.754,,,,,,,,,,,,
CalCOFI,2105SH,020,,2105_020d,08-May-2021 15:55:38,08-May-2021 07:55:38,32.91616,-118.93558,090.0 045.0,090.0,045.0,42.000,42.302,,11.0969,,11.0686,,11.0828,33.6794,,33.6806,33.6694,,33.6713,33.6760,3.4029,,3.6249,3.5881,3.4158,,3.5975,3.5578,3.5730,148.159,157.3842,126.3424,148.725,165.1406,125.8974,126.1199,0.0703,,0.3000,0.3082,1.7629,,0.0000,,25.7307,,25.7280,,,,,,,,,,,11.0918,11.0635,0.1318,226.273,54.710,54.882,,,,,,,,,,,,
CalCOFI,2105SH,020,,2105_020d,08-May-2021 15:55:39,08-May-2021 07:55:39,32.91616,-118.93558,090.0 045.0,090.0,045.0,43.000,43.310,,10.9050,,10.8924,,10.8987,33.7049,,33.7061,33.6889,,33.6908,33.6985,3.3580,,3.5779,3.5406,3.4040,,3.5853,3.5454,3.5430,146.197,155.3331,124.9232,148.205,163.0217,125.5215,125.2224,0.0630,,0.2465,0.2662,1.7512,,0.0000,,25.7849,,25.7747,,,,,,,,,,,10.8998,10.8872,0.1340,221.141,53.777,54.494,,,,,,,,,,,,
CalCOFI,2105SH,020,,2105_020d,08-May-2021 15:55:40,08-May-2021 07:55:40,32.91616,-118.93558,090.0 045.0,090.0,045.0,44.000,44.317,,10.7885,,10.7865,,10.7875,33.7183,,33.7195,33.7080,,33.7099,33.7147,3.3353,,3.5542,3.5166,3.3850,,3.5656,3.5255,3.5211,145.205,154.2961,124.2056,147.368,161.9503,124.9164,124.5610,0.0538,,0.1786,0.2132,1.7392,,0.0000,,25.8160,,25.8084,,,,,,,,,,,10.7833,10.7812,0.1363,218.198,53.284,54.072,,,,,,,,,,,,
CalCOFI,2105SH,020,,2105_020d,08-May-2021 15:55:41,08-May-2021 07:55:41,32.91616,-118.93558,090.0 045.0,090.0,045.0,45.000,45.324,,10.7440,,10.7426,,10.7433,33.7237,,33.7249,33.7150,,33.7169,33.7209,3.3111,,3.5288,3.4910,3.3650,,3.5449,3.5045,3.4978,144.150,153.1932,123.4424,146.497,160.8109,124.2868,123.8646,0.0535,,0.1764,0.2115,1.7237,,0.0000,,25.8281,,25.8216,,,,,,,,,,,10.7387,10.7372,0.1384,217.068,52.849,53.705,,,,,,,,,,,,
CalCOFI,2105SH,020,,2105_020d,08-May-2021 15:55:44,08-May-2021 07:55:44,32.91618,-118.93558,090.0 045.0,090.0,045.0,46.000,46.331,,10.6877,,10.6861,,10.6869,33.7344,,33.7356,33.7288,,33.7307,33.7332,3.2376,,3.4520,3.4133,3.2735,,3.4501,3.4086,3.4110,140.950,149.8479,121.1277,142.510,157.3549,121.4048,121.2663,0.0505,,0.1542,0.1942,1.6886,,0.0000,,25.8463,,25.8423,,,,,,,,,,,10.6822,10.6806,0.1406,215.351,51.618,52.186,,,,,,,,,,,,
CalCOFI,2105SH,020,,2105_020d,08-May-2021 15:55:47,08-May-2021 07:55:47,32.91618,-118.93559,090.0 045.0,090.0,045.0,47.000,47.339,,10.6366,,10.6358,,10.6362,33.7503,,33.7515,33.7456,,33.7475,33.7495,3.1947,,3.4071,3.3680,3.2462,,3.4218,3.3800,3.3740,139.077,147.8899,119.7728,141.320,155.3321,120.5446,120.1587,0.0507,,0.1557,0.1954,1.6604,,0.0000,,25.8677,,25.8642,,,,,,,,,,,10.6310,10.6302,0.1428,213.340,50.882,51.701,,,,,,,,,,,,
CalCOFI,2105SH,020,,2105_020d,08-May-2021 15:55:49,08-May-2021 07:55:49,32.91618,-118.93560,090.0 045.0,090.0,045.0,48.000,48.346,,10.6311,,10.6310,,10.6311,33.7514,,33.7526,33.7481,,33.7500,33.7513,3.1712,,3.3825,3.3431,3.2248,,3.3996,3.3576,3.3504,138.056,146.8225,119.0342,140.389,154.2294,119.8716,119.4529,0.0514,,0.1609,0.1994,1.6331,,0.0000,,25.8695,,25.8670,,,,,,,,,,,10.6254,10.6253,0.1449,213.190,50.503,51.355,,,,,,,,,,,,
CalCOFI,2105SH,020,,2105_020d,08-May-2021 15:55:51,08-May-2021 07:55:51,32.91618,-118.93560,090.0 045.0,090.0,045.0,49.000,49.353,,10.6278,,10.6278,,10.6278,33.7524,,33.7536,33.7498,,33.7517,33.7527,3.1493,,3.3596,3.3200,3.1698,,3.3427,3.3000,3.3100,137.100,145.8231,118.3427,137.994,153.1969,118.1403,118.2415,0.0507,,0.1557,0.1954,1.6148,,0.0000,,25.8709,,25.8689,,,,,,,,,,,10.6220,10.6219,0.1471,213.080,50.151,50.476,,,,,,,,,,,,
CalCOFI,2105SH,020,,2105_020d,08-May-2021 15:55:52,08-May-2021 07:55:52,32.91618,-118.93560,090.0 045.0,090.0,045.0,50.000,50.361,,10.6144,,10.6134,,10.6139,33.7565,,33.7577,33.7538,,33.7557,33.7567,3.1144,,3.3231,3.2831,3.1607,,3.3333,3.2904,3.2868,135.580,144.2341,117.2432,137.596,151.5553,117.8526,117.5479,0.0492,,0.1446,0.1867,1.6063,,0.0000,,25.8765,,25.8745,,,,,,,,,,,10.6085,10.6075,0.1492,212.573,49.582,50.317,,,,,,,,,,,,
CalCOFI,2105SH,020,,2105_020d,08-May-2021 15:55:54,08-May-2021 07:55:54,32.91618,-118.93560,090.0 045.0,090.0,045.0,51.000,51.368,,10.5964,,10.5942,,10.5953,33.7620,,33.7632,33.7602,,33.7621,33.7627,3.1129,,3.3216,3.2815,3.1561,,3.3285,3.2856,3.2836,135.514,144.1651,117.1954,137.394,151.4840,117.7066,117.4510,0.0483,,0.1379,0.1816,1.5935,,0.0000,,25.8839,,25.8829,,,,,,,,,,,10.5904,10.5881,0.1514,211.892,49.540,50.225,51,10.569,,,142.35,0.029,0.050,,,,,
CalCOFI,2105SH,020,,2105_020d,08-May-2021 15:55:58,08-May-2021 07:55:58,32.91618,-118.93560,090.0 045.0,090.0,045.0,52.000,52.375,,10.5878,,10.5791,,10.5835,33.7651,,33.7663,33.7638,,33.7657,33.7660,3.0564,,3.2625,3.2218,3.0723,,3.2417,3.1978,3.2098,133.056,141.5955,115.4174,133.748,148.8294,115.0710,115.2442,0.0467,,0.1260,0.1724,1.5695,,0.0000,,25.8878,,25.8884,,,,,,,,,,,10.5817,10.5729,0.1535,211.541,48.634,48.878,,,,,,,,,,,,
CalCOFI,2105SH,020,,2105_020d,08-May-2021 15:55:59,08-May-2021 07:55:59,32.91618,-118.93560,090.0 045.0,090.0,045.0,53.000,53.383,,10.5519,,10.5503,,10.5511,33.7710,,33.7722,33.7683,,33.7702,33.7712,3.0096,,3.2135,3.1723,3.0346,,3.2026,3.1583,3.1653,131.017,139.4640,113.9424,132.105,146.6272,113.8834,113.9129,0.0471,,0.1290,0.1747,1.5657,,0.0000,,25.8987,,25.8969,,,,,,,,,,,10.5456,10.5440,0.1556,210.524,47.854,48.249,,,,,,,,,,,,
CalCOFI,2105SH,020,,2105_020d,08-May-2021 15:55:59,08-May-2021 07:55:59,32.91618,-118.93560,090.0 045.0,090.0,045.0,54.000,54.390,,10.5156,,10.5141,,10.5149,33.7821,,33.7833,33.7793,,33.7812,33.7823,2.9807,,3.1833,3.1418,3.0194,,3.1869,3.1424,3.1421,129.754,138.1436,113.0288,131.441,145.2632,113.4034,113.2161,0.0439,,0.1052,0.1562,1.5611,,0.0000,,25.9137,,25.9118,,,,,,,,,,,10.5092,10.5077,0.1577,209.121,47.360,47.973,,,,,,,,,,,,